This is the latest recevied weather packets stored in our database for station/object N4CRH-13. If no packets are shown the sender has not sent any weather packets the latest 10 day(s).
| Time | Temp. | Humidity | Pressure | Rain* | Wind** | Luminosity | Snow |
|---|---|---|---|---|---|---|---|
| 1777530094 | 1.11° C | 95% | 1298.7 hPa | 3.05 mm | - | 0 W/m² | - |
| 1777529792 | 1.11° C | 94% | 1298.4 hPa | 1.27 mm | - | 0 W/m² | - |
| 1777529488 | 1.67° C | 94% | 1298.8 hPa | 1.78 mm | - | 0 W/m² | - |
| 1777529186 | 1.67° C | 95% | 1298.6 hPa | 3.56 mm | - | 0 W/m² | - |
| 1777528881 | 1.67° C | 95% | 1298.6 hPa | 1.78 mm | - | 0 W/m² | - |
| 1777528578 | 2.22° C | 95% | 1298.6 hPa | 1.27 mm | - | 0 W/m² | - |
| 1777528276 | 2.22° C | 95% | 1298.6 hPa | 1.78 mm | - | 0 W/m² | - |
| 1777527974 | 2.22° C | 95% | 1299 hPa | 3.05 mm | - | 0 W/m² | - |
| 1777527670 | 2.22° C | 95% | 1298.7 hPa | 1.27 mm | - | 0 W/m² | - |
| 1777527365 | 2.22° C | 95% | 1299.1 hPa | 1.78 mm | - | 0 W/m² | - |
| 1777527060 | 2.22° C | 95% | 1299 hPa | 3.05 mm | - | 0 W/m² | - |
| 1777526756 | 2.22° C | 94% | 1299 hPa | 1.27 mm | - | 0 W/m² | - |
| 1777526452 | 2.22° C | 94% | 1298.7 hPa | 1.78 mm | - | 0 W/m² | - |
| 1777526151 | 2.78° C | 94% | 1298.8 hPa | 1.78 mm | - | 0 W/m² | - |
| 1777525848 | 2.78° C | 94% | 1299.2 hPa | 0 mm | - | 0 W/m² | - |
| 1777525546 | 3.33° C | 94% | 1299 hPa | 0 mm | - | 0 W/m² | - |
| 1777525243 | 3.33° C | 93% | 1298.8 hPa | 1.27 mm | - | 0 W/m² | - |
| 1777524938 | 3.33° C | 93% | 1299 hPa | 1.27 mm | - | 0 W/m² | - |
| 1777524636 | 3.33° C | 93% | 1298.8 hPa | 0 mm | - | 0 W/m² | - |
| 1777524335 | 3.33° C | 93% | 1298.8 hPa | 1.78 mm | - | 0 W/m² | - |
| 1777524030 | 3.33° C | 94% | 1298.8 hPa | 1.78 mm | - | 0 W/m² | - |
| 1777523726 | 3.89° C | 94% | 1298.8 hPa | 1.27 mm | - | 0 W/m² | - |
| 1777523423 | 3.89° C | 93% | 1299 hPa | 1.27 mm | - | 0 W/m² | - |
| 1777523120 | 3.89° C | 93% | 1298.8 hPa | 1.78 mm | - | 0 W/m² | - |
| 1777522815 | 3.89° C | 92% | 1299 hPa | 1.78 mm | - | 0 W/m² | - |
* Rain latest hour (hover to see other rain measurements)
** Current wind speed in m/s (hover to see current wind gust speed)